| time (UTC) | temp F | wind direction | speed MPH | gust MPH | rain 1hr in | rain 24hr in | rain mn in | humidity % | barometer mb |
| 20260509200029 | 63 | 192 | 1.0 | 4.0 | 0.00 | 0.00 | 0.00 | 71 | 1006.6 |
| 20260509194534 | 62 | 218 | 1.0 | 4.0 | 0.00 | 0.00 | 0.00 | 70 | 1006.5 |
| 20260509193029 | 62 | 186 | 1.0 | 7.0 | 0.00 | 0.00 | 0.00 | 77 | 1007.0 |
| 20260509191531 | 60 | 159 | 1.0 | 5.0 | 0.00 | 0.00 | 0.00 | 77 | 1007.2 |
| 20260509190032 | 60 | 248 | 1.0 | 4.0 | 0.00 | 0.00 | 0.00 | 77 | 1007.3 |
| 20260509184541 | 60 | 132 | 1.0 | 5.0 | 0.00 | 0.00 | 0.00 | 81 | 1007.2 |
| 20260509183032 | 59 | 240 | 1.0 | 3.0 | 0.00 | 0.00 | 0.00 | 84 | 1007.2 |
| 20260509181529 | 57 | 142 | 1.0 | 3.0 | 0.00 | 0.00 | 0.00 | 87 | 1007.3 |
| 20260509180029 | 56 | 208 | 2.0 | 4.0 | 0.00 | 0.00 | 0.00 | 92 | 1007.5 |
| 20260509174535 | 54 | 157 | 1.0 | 3.0 | 0.00 | 0.00 | 0.00 | 96 | 1007.5 |
| 20260509173032 | 53 | 229 | 1.0 | 4.0 | 0.00 | 0.00 | 0.00 | 97 | 1007.7 |
| 20260509171533 | 53 | 199 | 1.0 | 4.0 | 0.00 | 0.00 | 0.00 | 97 | 1007.6 |
| 20260509170030 | 52 | 227 | 0.0 | 2.0 | 0.00 | 0.00 | 0.00 | 97 | 1007.7 |
| 20260509164528 | 52 | 240 | 1.0 | 4.0 | 0.00 | 0.00 | 0.00 | 97 | 1007.6 |
| 20260509163027 | 51 | 223 | 1.0 | 4.0 | 0.00 | 0.00 | 0.00 | 97 | 1007.5 |
| 20260509161532 | 51 | 236 | 1.0 | 3.0 | 0.00 | 0.00 | 0.00 | 97 | 1007.4 |
| 20260509160034 | 51 | 0 | 1.0 | 3.0 | 0.00 | 0.00 | 0.00 | 97 | 1007.4 |
| 20260509154529 | 51 | 183 | 1.0 | 3.0 | 0.00 | 0.00 | 0.00 | 97 | 1007.4 |
| 20260509153039 | 50 | 162 | 1.0 | 3.0 | 0.00 | 0.00 | 0.00 | 97 | 1007.5 |
| 20260509151528 | 50 | 153 | 1.0 | 3.0 | 0.00 | 0.00 | 0.00 | 97 | 1007.4 |
| 20260509150036 | 50 | 201 | 0.0 | 3.0 | 0.00 | 0.00 | 0.00 | 97 | 1007.5 |
| 20260509144545 | 50 | 174 | 1.0 | 2.0 | 0.00 | 0.00 | 0.00 | 97 | 1007.3 |
| 20260509143028 | 49 | 0 | 1.0 | 3.0 | 0.00 | 0.00 | 0.00 | 97 | 1007.3 |
| 20260509141533 | 49 | 191 | 1.0 | 3.0 | 0.00 | 0.00 | 0.00 | 97 | 1007.4 |
| 20260509140033 | 49 | 200 | 1.0 | 3.0 | 0.00 | 0.00 | 0.00 | 97 | 1007.6 |
| 20260509134556 | 48 | 195 | 1.0 | 3.0 | 0.00 | 0.01 | 0.00 | 97 | 1007.5 |
| 20260509133032 | 48 | 175 | 0.0 | 2.0 | 0.00 | 0.01 | 0.00 | 97 | 1007.5 |
| 20260509131530 | 48 | 0 | 0.0 | 2.0 | 0.00 | 0.01 | 0.00 | 97 | 1007.5 |
| 20260509130039 | 47 | 0 | 0.0 | 2.0 | 0.00 | 0.01 | 0.00 | 97 | 1007.5 |
| 20260509124533 | 47 | 192 | 0.0 | 2.0 | 0.00 | 0.01 | 0.00 | 97 | 1007.6 |
| 20260509123029 | 47 | 159 | 0.0 | 3.0 | 0.00 | 0.01 | 0.00 | 96 | 1007.8 |
| 20260509121540 | 46 | 144 | 1.0 | 2.0 | 0.00 | 0.01 | 0.00 | 96 | 1007.9 |
| 20260509120032 | 46 | 134 | 1.0 | 2.0 | 0.00 | 0.01 | 0.00 | 96 | 1007.9 |
| 20260509114535 | 46 | 141 | 1.0 | 2.0 | 0.00 | 0.01 | 0.00 | 96 | 1007.8 |
| 20260509113035 | 46 | 124 | 1.0 | 2.0 | 0.00 | 0.01 | 0.00 | 96 | 1007.9 |
| 20260509111530 | 46 | 129 | 1.0 | 2.0 | 0.00 | 0.01 | 0.00 | 96 | 1007.9 |
| 20260509110033 | 46 | 121 | 2.0 | 3.0 | 0.00 | 0.01 | 0.00 | 96 | 1007.6 |
| 20260509104539 | 46 | 121 | 1.0 | 3.0 | 0.00 | 0.01 | 0.00 | 96 | 1007.6 |
| 20260509103028 | 46 | 130 | 1.0 | 2.0 | 0.00 | 0.01 | 0.00 | 96 | 1008.0 |
| 20260509101536 | 46 | 134 | 2.0 | 3.0 | 0.00 | 0.01 | 0.00 | 96 | 1007.8 |
| 20260509100029 | 46 | 117 | 1.0 | 2.0 | 0.00 | 0.01 | 0.00 | 96 | 1007.9 |
| 20260509094536 | 46 | 120 | 1.0 | 2.0 | 0.00 | 0.01 | 0.00 | 96 | 1008.1 |
| 20260509093028 | 46 | 124 | 1.0 | 2.0 | 0.00 | 0.01 | 0.00 | 96 | 1008.1 |
| 20260509091537 | 46 | 124 | 2.0 | 3.0 | 0.00 | 0.01 | 0.00 | 96 | 1008.2 |
| 20260509090034 | 46 | 119 | 1.0 | 2.0 | 0.00 | 0.01 | 0.00 | 96 | 1008.3 |
| 20260509084533 | 46 | 0 | 0.0 | 2.0 | 0.00 | 0.01 | 0.00 | 96 | 1008.7 |
| 20260509083029 | 46 | 127 | 1.0 | 2.0 | 0.00 | 0.01 | 0.00 | 96 | 1008.5 |
| 20260509081533 | 46 | 125 | 1.0 | 1.0 | 0.00 | 0.01 | 0.00 | 96 | 1008.5 |
| 20260509080034 | 46 | 123 | 1.0 | 2.0 | 0.00 | 0.01 | 0.00 | 96 | 1008.6 |
| 20260509074540 | 46 | 119 | 1.0 | 2.0 | 0.00 | 0.01 | 0.00 | 96 | 1008.5 |
| 20260509073028 | 46 | 0 | 0.0 | 2.0 | 0.00 | 0.01 | 0.00 | 96 | 1008.3 |
| 20260509071530 | 46 | 115 | 1.0 | 2.0 | 0.00 | 0.01 | 0.00 | 96 | 1008.3 |
| 20260509070028 | 46 | 109 | 1.0 | 2.0 | 0.00 | 0.01 | 0.00 | 96 | 1008.5 |
| 20260509064537 | 46 | 111 | 2.0 | 2.0 | 0.00 | 0.01 | 0.00 | 96 | 1008.5 |
| 20260509063030 | 46 | 110 | 2.0 | 2.0 | 0.00 | 0.01 | 0.00 | 95 | 1008.7 |
| 20260509061532 | 46 | 94 | 1.0 | 3.0 | 0.00 | 0.01 | 0.00 | 95 | 1009.0 |
| 20260509060035 | 46 | 114 | 1.0 | 2.0 | 0.00 | 0.01 | 0.00 | 95 | 1009.4 |
| 20260509054535 | 46 | 122 | 1.0 | 2.0 | 0.00 | 0.01 | 0.00 | 95 | 1009.6 |
| 20260509053030 | 46 | 117 | 2.0 | 2.0 | 0.00 | 0.01 | 0.00 | 95 | 1009.7 |
| 20260509051533 | 46 | 114 | 1.0 | 2.0 | 0.00 | 0.01 | 0.00 | 95 | 1009.8 |
| 20260509050036 | 46 | 120 | 1.0 | 2.0 | 0.00 | 0.01 | 0.00 | 95 | 1010.0 |
| 20260509044531 | 46 | 121 | 1.0 | 2.0 | 0.00 | 0.01 | 0.00 | 95 | 1010.5 |
| 20260509043029 | 46 | 120 | 1.0 | 1.0 | 0.00 | 0.01 | 0.00 | 95 | 1010.8 |
| 20260509041553 | 46 | 120 | 1.0 | 2.0 | 0.00 | 0.01 | 0.00 | 95 | 1010.9 |
| 20260509040031 | 46 | 0 | 0.0 | 1.0 | 0.00 | 0.01 | 0.00 | 95 | 1010.9 |
| 20260509034528 | 46 | 120 | 1.0 | 1.0 | 0.00 | 0.01 | 0.01 | 94 | 1011.1 |
| 20260509033029 | 46 | 120 | 1.0 | 1.0 | 0.00 | 0.01 | 0.01 | 94 | 1011.0 |
| 20260509031536 | 47 | 121 | 1.0 | 2.0 | 0.00 | 0.01 | 0.01 | 94 | 1011.2 |
| 20260509030032 | 47 | 111 | 0.0 | 1.0 | 0.00 | 0.01 | 0.01 | 94 | 1011.3 |
| 20260509024528 | 47 | 0 | 0.0 | 0.0 | 0.00 | 0.01 | 0.01 | 93 | 1011.5 |
| 20260509023031 | 47 | 0 | 0.0 | 0.0 | 0.00 | 0.01 | 0.01 | 93 | 1011.8 |
| 20260509021535 | 46 | 0 | 0.0 | 0.0 | 0.00 | 0.01 | 0.01 | 92 | 1011.5 |
| 20260509020043 | 47 | 0 | 0.0 | 0.0 | 0.00 | 0.01 | 0.01 | 92 | 1011.1 |
| 20260509014532 | 47 | 0 | 0.0 | 0.0 | 0.00 | 0.01 | 0.01 | 91 | 1011.0 |
| 20260509013037 | 47 | 0 | 0.0 | 2.0 | 0.00 | 0.01 | 0.01 | 90 | 1010.8 |
| 20260509011528 | 47 | 0 | 0.0 | 0.0 | 0.00 | 0.01 | 0.01 | 90 | 1010.8 |
| 20260509010034 | 47 | 0 | 0.0 | 2.0 | 0.00 | 0.01 | 0.01 | 90 | 1010.6 |
| 20260509004534 | 47 | 311 | 0.0 | 2.0 | 0.00 | 0.01 | 0.01 | 90 | 1010.2 |
| 20260509003029 | 47 | 0 | 0.0 | 2.0 | 0.00 | 0.01 | 0.01 | 90 | 1010.6 |
| 20260509001530 | 47 | 292 | 0.0 | 2.0 | 0.00 | 0.01 | 0.01 | 90 | 1010.4 |
| 20260509000030 | 48 | 268 | 0.0 | 2.0 | 0.00 | 0.01 | 0.01 | 89 | 1010.4 |
| 20260508234531 | 48 | 0 | 0.0 | 2.0 | 0.00 | 0.01 | 0.01 | 87 | 1009.8 |
| 20260508233029 | 48 | 0 | 0.0 | 2.0 | 0.00 | 0.01 | 0.01 | 86 | 1009.7 |
| 20260508231530 | 48 | 240 | 0.0 | 2.0 | 0.00 | 0.01 | 0.01 | 86 | 1009.7 |
| 20260508230039 | 49 | 253 | 0.0 | 2.0 | 0.00 | 0.01 | 0.01 | 84 | 1010.2 |
| 20260508224529 | 50 | 240 | 1.0 | 4.0 | 0.00 | 0.01 | 0.01 | 81 | 1010.1 |
| 20260508223030 | 51 | 193 | 2.0 | 4.0 | 0.00 | 0.01 | 0.01 | 75 | 1010.3 |
| 20260508221529 | 52 | 234 | 1.0 | 5.0 | 0.00 | 0.01 | 0.01 | 73 | 1010.1 |
| 20260508220030 | 52 | 207 | 2.0 | 5.0 | 0.00 | 0.01 | 0.01 | 73 | 1010.0 |
| 20260508214532 | 52 | 199 | 1.0 | 4.0 | 0.00 | 0.01 | 0.01 | 73 | 1010.3 |
| 20260508213038 | 52 | 213 | 2.0 | 8.0 | 0.00 | 0.01 | 0.01 | 73 | 1010.2 |
| 20260508211537 | 53 | 178 | 2.0 | 7.0 | 0.00 | 0.01 | 0.01 | 74 | 1010.1 |
| 20260508210028 | 53 | 219 | 1.0 | 5.0 | 0.00 | 0.01 | 0.01 | 75 | 1010.1 |
| 20260508204528 | 54 | 189 | 2.0 | 4.0 | 0.00 | 0.01 | 0.01 | 74 | 1010.0 |
| 20260508203032 | 54 | 209 | 1.0 | 5.0 | 0.00 | 0.01 | 0.01 | 73 | 1010.3 |
| 20260508201528 | 55 | 194 | 2.0 | 8.0 | 0.00 | 0.01 | 0.01 | 75 | 1010.3 |